When you browse on this site, cookies collect data to enhance your experience and personalize the content and advertising you see.
Visit our Privacy Policy to learn more. By continuing to use the site, you agree to this use of cookies and data.
EN

Hourly Weather Leba

Today, 23 September, Wednesday

Time Temperature Precipitation Wind Pressure Humidity
00:00 +18°C° 0 mm 4 mps 755 mmHg 67%
01:00 +17°C° 0 mm 4 mps 755 mmHg 69%
02:00 +17°C° 0 mm 4 mps 755 mmHg 72%
03:00 +15°C° 0 mm 4 mps 755 mmHg 75%
04:00 +15°C° 0 mm 4 mps 754 mmHg 77%
05:00 +15°C° 0 mm 4 mps 754 mmHg 77%
06:00 +17°C° 0 mm 4 mps 754 mmHg 76%
07:00 +17°C° 0 mm 4 mps 754 mmHg 73%
08:00 +20°C° 0 mm 4 mps 754 mmHg 66%
09:00 +22°C° 0 mm 4 mps 754 mmHg 60%
10:00 +25°C° 0 mm 4 mps 754 mmHg 54%
11:00 +26°C° 0 mm 3 mps 754 mmHg 50%
12:00 +27°C° 0 mm 3 mps 754 mmHg 47%
13:00 +28°C° 0 mm 2 mps 754 mmHg 44%
14:00 +28°C° 0.2 mm 2 mps 754 mmHg 45%
15:00 +27°C° 0.2 mm 2 mps 753 mmHg 47%
16:00 +27°C° 0.2 mm 3 mps 753 mmHg 48%
17:00 +25°C° 0.4 mm 3 mps 753 mmHg 53%
18:00 +22°C° 0.4 mm 3 mps 753 mmHg 58%
19:00 +20°C° 0.4 mm 3 mps 753 mmHg 62%
20:00 +20°C° 0.2 mm 3 mps 753 mmHg 66%
21:00 +19°C° 0.2 mm 3 mps 752 mmHg 70%
22:00 +19°C° 0.2 mm 3 mps 752 mmHg 73%
23:00 +18°C° 0.2 mm 3 mps 752 mmHg 76%

Tomorrow, 24 September, Thursday

Time Temperature Precipitation Wind Pressure Humidity
00:00 +18°C° 0.2 mm 3 mps 752 mmHg 78%
01:00 +17°C° 0.2 mm 3 mps 752 mmHg 80%
02:00 +17°C° 0.2 mm 2 mps 752 mmHg 82%
03:00 +17°C° 0.2 mm 2 mps 752 mmHg 84%
04:00 +16°C° 0.2 mm 2 mps 752 mmHg 85%
05:00 +17°C° 0.1 mm 3 mps 752 mmHg 86%
06:00 +17°C° 0.1 mm 3 mps 752 mmHg 86%
07:00 +18°C° 0.1 mm 4 mps 751 mmHg 87%
08:00 +19°C° 0 mm 4 mps 751 mmHg 80%
09:00 +21°C° 0 mm 5 mps 752 mmHg 73%
10:00 +23°C° 0 mm 5 mps 752 mmHg 67%
11:00 +23°C° 0 mm 5 mps 752 mmHg 59%
12:00 +25°C° 0 mm 5 mps 752 mmHg 52%
13:00 +26°C° 0 mm 5 mps 752 mmHg 45%
14:00 +25°C° 0 mm 5 mps 752 mmHg 51%
15:00 +23°C° 0 mm 5 mps 752 mmHg 56%
16:00 +22°C° 0 mm 5 mps 752 mmHg 62%
17:00 +20°C° 0 mm 3 mps 753 mmHg 70%
18:00 +18°C° 0 mm 2 mps 753 mmHg 79%
19:00 +18°C° 0 mm 1 mps 753 mmHg 87%
20:00 +16°C° 0 mm 1 mps 753 mmHg 88%
21:00 +15°C° 0 mm 0 mps 753 mmHg 89%
22:00 +15°C° 0 mm 0 mps 753 mmHg 90%
23:00 +16°C° 0 mm 1 mps 753 mmHg 91%

Day after tomorrow, 25 September, Friday

Time Temperature Precipitation Wind Pressure Humidity
00:00 +15°C° 0 mm 2 mps 753 mmHg 92%
01:00 +15°C° 0 mm 2 mps 753 mmHg 93%
02:00 +14°C° 0 mm 3 mps 753 mmHg 92%
03:00 +14°C° 0 mm 3 mps 752 mmHg 92%
04:00 +14°C° 0 mm 4 mps 752 mmHg 92%
05:00 +15°C° 0 mm 4 mps 751 mmHg 89%
06:00 +15°C° 0 mm 4 mps 751 mmHg 86%
07:00 +15°C° 0 mm 5 mps 750 mmHg 84%
08:00 +17°C° 0 mm 5 mps 749 mmHg 76%
09:00 +20°C° 0 mm 6 mps 749 mmHg 68%
10:00 +21°C° 0 mm 7 mps 748 mmHg 60%
11:00 +22°C° 0 mm 7 mps 747 mmHg 59%
12:00 +23°C° 0 mm 7 mps 747 mmHg 58%
13:00 +23°C° 0 mm 7 mps 746 mmHg 58%
14:00 +22°C° 0.6 mm 7 mps 746 mmHg 65%
15:00 +21°C° 0.6 mm 6 mps 745 mmHg 73%
16:00 +20°C° 0.6 mm 6 mps 745 mmHg 81%
17:00 +17°C° 0.8 mm 6 mps 745 mmHg 84%
18:00 +16°C° 0.8 mm 6 mps 745 mmHg 87%
19:00 +14°C° 0.8 mm 7 mps 745 mmHg 91%
20:00 +14°C° 0.4 mm 7 mps 746 mmHg 90%
21:00 +14°C° 0.4 mm 7 mps 746 mmHg 90%
22:00 +14°C° 0.4 mm 7 mps 747 mmHg 89%
23:00 +14°C° 0.1 mm 6 mps 747 mmHg 87%

26 September, Saturday

Time Temperature Precipitation Wind Pressure Humidity
00:00 +14°C° 0.1 mm 6 mps 748 mmHg 85%
01:00 +13°C° 0.1 mm 6 mps 748 mmHg 83%
02:00 +13°C° 0 mm 5 mps 748 mmHg 84%
03:00 +13°C° 0 mm 4 mps 748 mmHg 84%
04:00 +12°C° 0 mm 3 mps 749 mmHg 85%
05:00 +12°C° 0 mm 3 mps 749 mmHg 84%
06:00 +13°C° 0 mm 2 mps 749 mmHg 84%
07:00 +13°C° 0 mm 2 mps 749 mmHg 84%
08:00 +14°C° 0 mm 2 mps 749 mmHg 79%
09:00 +15°C° 0 mm 2 mps 749 mmHg 75%
10:00 +16°C° 0 mm 2 mps 750 mmHg 71%
11:00 +14°C° 0.1 mm 4 mps 749 mmHg 73%
12:00 +14°C° 0.1 mm 5 mps 749 mmHg 75%
13:00 +14°C° 0.1 mm 6 mps 749 mmHg 78%
14:00 +14°C° 0.6 mm 7 mps 749 mmHg 83%
15:00 +13°C° 0.6 mm 8 mps 748 mmHg 88%
16:00 +13°C° 0.6 mm 8 mps 748 mmHg 94%
17:00 +15°C° 0.3 mm 8 mps 748 mmHg 93%
18:00 +16°C° 0.3 mm 7 mps 747 mmHg 93%
19:00 +17°C° 0.3 mm 7 mps 747 mmHg 92%
20:00 +17°C° 0 mm 6 mps 747 mmHg 93%
21:00 +17°C° 0 mm 6 mps 747 mmHg 93%
22:00 +17°C° 0 mm 5 mps 747 mmHg 93%
23:00 +17°C° 0 mm 5 mps 747 mmHg 94%

27 September, Sunday

Time Temperature Precipitation Wind Pressure Humidity
00:00 +16°C° 0 mm 5 mps 747 mmHg 94%
01:00 +16°C° 0 mm 5 mps 747 mmHg 95%
02:00 +16°C° 0 mm 6 mps 747 mmHg 91%
03:00 +17°C° 0 mm 7 mps 747 mmHg 88%
04:00 +17°C° 0 mm 8 mps 747 mmHg 84%
05:00 +17°C° 0 mm 8 mps 747 mmHg 81%
06:00 +17°C° 0 mm 9 mps 747 mmHg 78%
07:00 +17°C° 0 mm 9 mps 747 mmHg 75%
08:00 +18°C° 0 mm 9 mps 747 mmHg 69%
09:00 +19°C° 0 mm 9 mps 748 mmHg 63%
10:00 +21°C° 0 mm 9 mps 748 mmHg 58%
11:00 +21°C° 0 mm 9 mps 748 mmHg 57%
12:00 +22°C° 0 mm 9 mps 748 mmHg 56%
13:00 +23°C° 0 mm 9 mps 748 mmHg 54%
14:00 +22°C° 0 mm 9 mps 749 mmHg 58%
15:00 +21°C° 0 mm 8 mps 749 mmHg 61%
16:00 +20°C° 0 mm 8 mps 749 mmHg 65%
17:00 +18°C° 0 mm 7 mps 749 mmHg 66%
18:00 +18°C° 0 mm 7 mps 750 mmHg 67%
19:00 +17°C° 0 mm 6 mps 750 mmHg 68%
20:00 +17°C° 0 mm 5 mps 751 mmHg 73%
21:00 +18°C° 0 mm 4 mps 751 mmHg 79%
22:00 +17°C° 0 mm 4 mps 751 mmHg 84%
23:00 +16°C° 0 mm 5 mps 751 mmHg 83%

28 September, Monday

Time Temperature Precipitation Wind Pressure Humidity
00:00 +16°C° 0 mm 6 mps 751 mmHg 83%
01:00 +16°C° 0 mm 7 mps 751 mmHg 82%
02:00 +16°C° 0 mm 7 mps 751 mmHg 82%
03:00 +16°C° 0 mm 7 mps 751 mmHg 83%
04:00 +15°C° 0 mm 7 mps 751 mmHg 83%
05:00 +15°C° 0 mm 7 mps 751 mmHg 81%
06:00 +15°C° 0 mm 7 mps 751 mmHg 79%
07:00 +15°C° 0 mm 7 mps 751 mmHg 76%
08:00 +15°C° 0 mm 7 mps 751 mmHg 76%
09:00 +15°C° 0 mm 8 mps 751 mmHg 77%
10:00 +15°C° 0 mm 8 mps 751 mmHg 77%
11:00 +15°C° 0 mm 7 mps 751 mmHg 79%
12:00 +15°C° 0 mm 7 mps 751 mmHg 80%
13:00 +14°C° 0 mm 7 mps 752 mmHg 82%
14:00 +14°C° 0.1 mm 7 mps 752 mmHg 82%
15:00 +14°C° 0.1 mm 7 mps 752 mmHg 82%
16:00 +14°C° 0.1 mm 7 mps 752 mmHg 81%
17:00 +13°C° 0 mm 6 mps 752 mmHg 82%
18:00 +13°C° 0 mm 6 mps 753 mmHg 83%
19:00 +11°C° 0 mm 6 mps 753 mmHg 83%
20:00 +11°C° 0 mm 6 mps 754 mmHg 83%
21:00 +10°C° 0 mm 6 mps 754 mmHg 83%
22:00 +10°C° 0 mm 6 mps 754 mmHg 82%
23:00 +10°C° 0 mm 5 mps 755 mmHg 86%
Show more